Weather History for Tel Aviv, Israel

Change the Weather History Date:

Friday, November 8, 2013

  Actual Average Record
Temperature  
Mean Temperature 73 °F -  
Max Temperature 82 °F 72 °F 86 °F (2002)
Min Temperature 64 °F 54 °F 55 °F (2000)
Cooling Degree Days 8    
Growing Degree Days 23 (Base 50)    
Moisture  
Dew Point 53 °F    
Average Humidity 52    
Maximum Humidity 73    
Minimum Humidity 23    
Precipitation  
Precipitation 0.00 in - - ()
Sea Level Pressure  
Sea Level Pressure 29.84 in    
Wind  
Wind Speed 5 mph ()    
Max Wind Speed 15 mph    
Max Gust Speed -    
Visibility 6.1 miles    
Events Rain    
Averages and records for this station are not official NWS values.
T = Trace of Precipitation, MM = Missing Value Source: Averaged Metar Reports

Daily Weather History Graph

Daily Weather History Graph

Search for Another Location

Airport:

Trip Planner

Search our weather history database for the weather conditions in past years. The results will help you decide how hot, cold, wet, or windy it might be!

Date:

Astronomy

Nov. 08, 2013 Rise Set
Actual Time 6:02 AM IST 4:45 PM IST
Civil Twilight 5:37 AM IST 5:10 PM IST
Nautical Twilight 5:08 AM IST 5:39 PM IST
Astronomical Twilight 4:39 AM IST 6:08 PM IST
Moon 10:41 AM IST (11/8) 9:42 PM IST (11/8)
Length of Visible Light 11h 33m
Length of Day
10h 42m
Waxing Crescent, 30% of the Moon is Illuminated
Nov 8
Waxing Crescent
Nov 10
First Quarter
Nov 17
Full
Nov 25
Last Quarter
Dec 3
New

Hourly Weather History & Observations

Time (IST) Temp. Dew Point Humidity Pressure Visibility Wind Dir Wind Speed Gust Speed Precip Events Conditions
12:20 AM 71.6 °F 50.0 °F 46% 29.83 in - North 4.6 mph - N/A   Clear
12:50 AM 71.6 °F 51.8 °F 50% 29.83 in - West 8.1 mph - N/A   Clear
1:20 AM 73.4 °F 55.4 °F 53% 29.83 in 6.2 mi SE 8.1 mph - N/A Rain Light Rain
1:50 AM 69.8 °F 55.4 °F 60% 29.83 in - SE 8.1 mph - N/A   Clear
2:00 AM 71 °F 56 °F 49% 29.84 in 6 mi SE 8.1 mph - - Rain Light Rain
2:20 AM 68.0 °F 57.2 °F 68% 29.83 in 6.2 mi Variable 3.5 mph - N/A Rain Light Rain
2:50 AM 69.8 °F 59.0 °F 68% 29.83 in - ESE 9.2 mph - N/A   Clear
3:20 AM 69.8 °F 57.2 °F 64% 29.83 in - ESE 5.8 mph - N/A   Clear
3:50 AM 69.8 °F 53.6 °F 56% 29.83 in - SE 4.6 mph - N/A   Clear
4:20 AM 68.0 °F 55.4 °F 64% 29.83 in - Variable 2.3 mph - N/A   Clear
4:50 AM 66.2 °F 57.2 °F 73% 29.83 in - NW 4.6 mph - N/A   Clear
5:20 AM 66.2 °F 57.2 °F 73% 29.83 in - Variable 1.2 mph - N/A   Clear
5:50 AM 66.2 °F 53.6 °F 64% 29.83 in - NNE 4.6 mph - N/A   Clear
6:20 AM 64.4 °F 55.4 °F 73% 29.83 in - ENE 5.8 mph - N/A   Clear
6:50 AM 66.2 °F 55.4 °F 68% 29.83 in - NE 6.9 mph - N/A   Clear
7:20 AM 68.0 °F 55.4 °F 64% 29.86 in - Variable 1.2 mph - N/A   Clear
7:50 AM 71.6 °F 53.6 °F 53% 29.86 in - Variable 2.3 mph - N/A   Clear
8:00 AM 71 °F 54 °F 44% 29.86 in 6 mi 2.3 mph - -   Partly Cloudy
8:20 AM 71.6 °F 51.8 °F 50% 29.86 in - Variable 2.3 mph - N/A   Clear
8:50 AM 73.4 °F 48.2 °F 41% 29.86 in - Variable 2.3 mph - N/A   Clear
9:20 AM 77.0 °F 50.0 °F 39% 29.86 in - WNW 5.8 mph - N/A   Clear
9:50 AM 78.8 °F 48.2 °F 34% 29.86 in - West 5.8 mph - N/A   Clear
10:20 AM 80.6 °F 48.2 °F 32% 29.86 in - West 6.9 mph - N/A   Clear
10:50 AM 80.6 °F 50.0 °F 34% 29.86 in - WSW 5.8 mph - N/A   Clear
11:20 AM 80.6 °F 48.2 °F 32% 29.83 in - WSW 5.8 mph - N/A   Clear
11:50 AM 80.6 °F 50.0 °F 34% 29.83 in - WNW 6.9 mph - N/A   Clear
12:20 PM 80.6 °F 50.0 °F 34% 29.83 in - West 5.8 mph - N/A   Clear
12:50 PM 80.6 °F 48.2 °F 32% 29.80 in - WNW 5.8 mph - N/A   Clear
1:20 PM 80.6 °F 46.4 °F 30% 29.80 in - WNW 4.6 mph - N/A   Clear
1:50 PM 80.6 °F 50.0 °F 34% 29.80 in - NW 8.1 mph - N/A   Clear
2:00 PM 80 °F 49 °F 23% 29.81 in 6 mi NW 8.1 mph - -   Mostly Cloudy
2:20 PM 80.6 °F 50.0 °F 34% 29.80 in 6.2 mi NW 6.9 mph - N/A   Unknown
2:50 PM 80.6 °F 46.4 °F 30% 29.80 in 6.2 mi NW 10.4 mph - N/A   Unknown
3:20 PM 78.8 °F 51.8 °F 39% 29.80 in 6.2 mi NW 12.7 mph - N/A   Unknown
3:50 PM 77.0 °F 51.8 °F 41% 29.83 in 6.2 mi NNW 15.0 mph - N/A   Unknown
4:20 PM 77.0 °F 50.0 °F 39% 29.83 in 6.2 mi NW 15.0 mph - N/A   Unknown
4:50 PM 75.2 °F 51.8 °F 44% 29.83 in - NNW 6.9 mph - N/A   Clear
5:20 PM 75.2 °F 53.6 °F 47% 29.83 in - North 5.8 mph - N/A   Clear
5:50 PM 73.4 °F 55.4 °F 53% 29.86 in - NNW 4.6 mph - N/A   Clear
6:20 PM 73.4 °F 59.0 °F 61% 29.86 in - North 4.6 mph - N/A   Clear
6:50 PM 73.4 °F 60.8 °F 65% 29.86 in - North 4.6 mph - N/A   Clear
7:20 PM 73.4 °F 59.0 °F 61% 29.86 in - Variable 2.3 mph - N/A   Clear
7:50 PM 69.8 °F 55.4 °F 60% 29.86 in - ENE 4.6 mph - N/A   Clear
8:00 PM 71 °F 54 °F 44% 29.86 in 6 mi 3.5 mph - -   Partly Cloudy
8:20 PM 69.8 °F 55.4 °F 60% 29.86 in - Variable 1.2 mph - N/A   Clear
8:50 PM 69.8 °F 57.2 °F 64% 29.86 in - Variable 1.2 mph - N/A   Clear
9:20 PM 68.0 °F 55.4 °F 64% 29.86 in - Variable 1.2 mph - N/A   Clear
9:50 PM 66.2 °F 57.2 °F 73% 29.86 in - Variable 3.5 mph - N/A   Clear
10:20 PM 66.2 °F 57.2 °F 73% 29.86 in - Variable 1.2 mph - N/A   Clear
10:50 PM 68.0 °F 55.4 °F 64% 29.89 in - Variable 3.5 mph - N/A   Clear
11:20 PM 66.2 °F 57.2 °F 73% 29.86 in - SE 5.8 mph - N/A   Clear
11:50 PM 66.2 °F 55.4 °F 68% 29.86 in - Variable 2.3 mph - N/A   Clear